Regional Weather Roundup
Issued by NWS Sioux Falls, SD

Home | Current Version | Previous Version | Graphics & Text | Print | Product List | Glossary On
Versions: 1 2 3 4 5 6 7 8 9 10 11 12 13 14 15 16 17 18 19 20 21 22 23 24 25 26 27 28 29 30 31 32 33 34 35 36 37 38 39 40 41 42 43 44 45 46 47 48 49 50
000
ASUS43 KFSD 292310
RWRFSD

WEATHER ROUNDUP FOR SE SOUTH DAKOTA/SW MINNESOTA/NW IOWA
NATIONAL WEATHER SERVICE SIOUX FALLS SD
600 PM CDT SUN MAY 29 2016

NOTE: "FAIR" INDICATES FEW OR NO CLOUDS BELOW 12,000 FEET WITH NO
SIGNIFICANT WEATHER AND OR OBSTRUCTIONS TO VISIBILITY.


SDZ038>040-050-052>070-300000-
SOUTHEAST SOUTH DAKOTA

CITY           SKY/WX    TMP DP  RH WIND       PRES   REMARKS
BROOKINGS      SUNNY     76  49  38 NW10      30.00F
CHAMBERLAIN    PTSUNNY   78  57  47 E7        30.00S
HURON          SUNNY     77  49  37 CALM      29.99F
MADISON        FAIR      73  50  43 NW7       30.02F
MITCHELL       SUNNY     78  47  33 W6        30.01F
SIOUX FALLS    SUNNY     78  49  35 NW5       30.01F
WINNER         FAIR      78  54  43 SE6       30.00F
YANKTON        SUNNY     79  55  44 NE5       29.98F
$$

MNZ071-072-080-081-089-090-097-098-300000-
SOUTHWEST MINNESOTA

CITY           SKY/WX    TMP DP  RH WIND       PRES   REMARKS
FAIRMONT       SUNNY     77  48  36 W14G25    29.98S
JACKSON        SUNNY     79  41  25 W16       30.01S
LUVERNE        SUNNY     77  43  29 NW7       30.02F
MARSHALL       SUNNY     78  47  33 NW15G24   29.98S
MONTEVIDEO     SUNNY     81  45  28 N16       29.98F
PIPESTONE      SUNNY     77  43  29 NW10G21   30.02S
REDWOOD FALLS  SUNNY     79  45  29 NW13G21   29.95F
TRACY          SUNNY     78  49  36 NW17      30.00S
WINDOM         SUNNY     77  43  29 NW16G23   30.00S
WORTHINGTON    SUNNY     76  47  35 NW15      30.02F
$$

IAZ001>003-012>014-020>022-031-032-NEZ013-014-SDZ071-300000-
NORTHWEST IOWA

CITY           SKY/WX    TMP DP  RH WIND       PRES   REMARKS
CHEROKEE       SUNNY     78  58  49 NW8       30.01S
DENISON        SUNNY     81  55  41 VRB5      29.98F
ESTHERVILLE    SUNNY     76  54  46 W16       30.00F
LE MARS        SUNNY     79  55  44 VRB7      30.01F
ORANGE CITY    SUNNY     77  54  44 NW6       30.02F
SHELDON        SUNNY     79  50  36 W9G15     30.01F
SIOUX CITY     SUNNY     83  58  42 N5        29.99F
SPENCER        SUNNY     77  48  35 NW13      30.01F
STORM LAKE     SUNNY     79  55  44 NW15      30.02F
$$

ABBREVIATIONS USED IN REMARKS
   TC - TEMPERATURE IN CELSIUS
  WCI - WIND CHILL INDEX
   HX - HEAT INDEX
  VSB - VISIBILITY





USA.gov is the U.S. government's official web portal to all federal, state and local government web resources and services.